Time,TemperatureF,DewpointF,PressureIn,WindDirection,WindDirectionDegrees,WindSpeedMPH,WindSpeedGustMPH,Humidity,HourlyPrecipIn,Conditions,Clouds,dailyrainin,SoftwareType,DateUTC
2013-09-11 00:00:00,58.0,54.0,-100.00,ENE,73,3.0,-999.0,84,0.00,,,-99.99,,2013-09-11 07:00:00,
2013-09-11 00:42:00,58.0,54.0,-100.00,ENE,73,3.0,-999.0,84,0.00,,,-99.99,,2013-09-11 07:42:00,
2013-09-11 00:52:00,58.0,54.0,-100.00,ENE,73,3.0,-999.0,84,0.00,,,-99.99,,2013-09-11 07:52:00,
2013-09-11 01:00:00,57.0,54.0,-100.00,NE,42,1.0,-999.0,87,0.00,,,-99.99,,2013-09-11 08:00:00,
2013-09-11 01:42:00,57.0,54.0,-100.00,NE,42,1.0,-999.0,87,0.00,,,-99.99,,2013-09-11 08:42:00,
2013-09-11 01:52:00,57.0,54.0,-100.00,NE,42,1.0,-999.0,87,0.00,,,-99.99,,2013-09-11 08:52:00,
2013-09-11 02:00:00,57.0,53.0,-100.00,ENE,72,1.0,-999.0,87,0.00,,,-99.99,,2013-09-11 09:00:00,
2013-09-11 02:43:00,57.0,53.0,-100.00,ENE,72,1.0,-999.0,87,0.00,,,-99.99,,2013-09-11 09:43:00,
2013-09-11 02:53:00,57.0,53.0,-100.00,ENE,72,1.0,-999.0,87,0.00,,,-99.99,,2013-09-11 09:53:00,
2013-09-11 03:00:00,57.0,53.0,-100.00,NNE,19,2.0,-999.0,86,0.00,,,-99.99,,2013-09-11 10:00:00,
2013-09-11 03:43:00,57.0,53.0,-100.00,NNE,19,2.0,-999.0,86,0.00,,,-99.99,,2013-09-11 10:43:00,
2013-09-11 03:53:00,57.0,53.0,-100.00,NNE,19,2.0,-999.0,86,0.00,,,-99.99,,2013-09-11 10:53:00,
2013-09-11 04:00:00,59.0,56.0,-100.00,NE,55,2.0,-999.0,87,0.00,,,-99.99,,2013-09-11 11:00:00,
2013-09-11 04:42:00,59.0,56.0,-100.00,NE,55,2.0,-999.0,87,0.00,,,-99.99,,2013-09-11 11:42:00,
2013-09-11 04:52:00,59.0,56.0,-100.00,NE,55,2.0,-999.0,87,0.00,,,-99.99,,2013-09-11 11:52:00,
2013-09-11 05:00:00,61.0,57.0,-100.00,East,100,2.0,-999.0,86,0.00,,,-99.99,,2013-09-11 12:00:00,
2013-09-11 05:42:00,61.0,57.0,-100.00,East,100,2.0,-999.0,86,0.00,,,-99.99,,2013-09-11 12:42:00,
2013-09-11 05:52:00,61.0,57.0,-100.00,East,100,2.0,-999.0,86,0.00,,,-99.99,,2013-09-11 12:52:00,
2013-09-11 06:00:00,61.0,57.0,-100.00,SSE,164,0.0,-999.0,85,0.00,,,-99.99,,2013-09-11 13:00:00,
2013-09-11 06:42:00,61.0,57.0,-100.00,SSE,164,0.0,-999.0,85,0.00,,,-99.99,,2013-09-11 13:42:00,
2013-09-11 06:52:00,61.0,57.0,-100.00,SSE,164,0.0,-999.0,85,0.00,,,-99.99,,2013-09-11 13:52:00,
2013-09-11 07:00:00,62.0,57.0,-100.00,North,359,2.0,-999.0,84,0.00,,,-99.99,,2013-09-11 14:00:00,
2013-09-11 07:42:00,62.0,57.0,-100.00,North,359,2.0,-999.0,84,0.00,,,-99.99,,2013-09-11 14:42:00,
2013-09-11 07:52:00,62.0,57.0,-100.00,North,359,2.0,-999.0,84,0.00,,,-99.99,,2013-09-11 14:52:00,
2013-09-11 08:00:00,63.0,57.0,-100.00,NE,43,2.0,-999.0,82,0.00,,,-99.99,,2013-09-11 15:00:00,
2013-09-11 08:43:00,63.0,57.0,-100.00,NE,43,2.0,-999.0,82,0.00,,,-99.99,,2013-09-11 15:43:00,
2013-09-11 08:54:00,63.0,57.0,-100.00,NE,43,2.0,-999.0,82,0.00,,,-99.99,,2013-09-11 15:54:00,
2013-09-11 09:00:00,64.0,57.0,-100.00,ESE,113,2.0,-999.0,79,0.00,,,-99.99,,2013-09-11 16:00:00,
2013-09-11 09:43:00,64.0,57.0,-100.00,ESE,113,2.0,-999.0,79,0.00,,,-99.99,,2013-09-11 16:43:00,
2013-09-11 09:53:00,64.0,57.0,-100.00,ESE,113,2.0,-999.0,79,0.00,,,-99.99,,2013-09-11 16:53:00,
2013-09-11 10:00:00,65.0,57.0,-100.00,ESE,102,2.0,-999.0,74,0.00,,,-99.99,,2013-09-11 17:00:00,
2013-09-11 10:43:00,65.0,57.0,-100.00,ESE,102,2.0,-999.0,74,0.00,,,-99.99,,2013-09-11 17:43:00,
2013-09-11 10:52:00,65.0,57.0,-100.00,ESE,102,2.0,-999.0,74,0.00,,,-99.99,,2013-09-11 17:52:00,
2013-09-11 11:00:00,68.0,57.0,-100.00,NNW,328,2.0,-999.0,67,0.00,,,-99.99,,2013-09-11 18:00:00,
2013-09-11 11:42:00,68.0,57.0,-100.00,NNW,328,2.0,-999.0,67,0.00,,,-99.99,,2013-09-11 18:42:00,
2013-09-11 11:52:00,68.0,57.0,-100.00,NNW,328,2.0,-999.0,67,0.00,,,-99.99,,2013-09-11 18:52:00,
2013-09-11 12:00:00,72.0,56.0,-100.00,SSW,198,1.0,-999.0,56,0.00,,,-99.99,,2013-09-11 19:00:00,
2013-09-11 12:42:00,72.0,56.0,-100.00,SSW,198,1.0,-999.0,56,0.00,,,-99.99,,2013-09-11 19:42:00,
2013-09-11 12:53:00,72.0,56.0,-100.00,SSW,198,1.0,-999.0,56,0.00,,,-99.99,,2013-09-11 19:53:00,
2013-09-11 13:00:00,75.0,57.0,-100.00,WNW,301,4.0,-999.0,53,0.00,,,-99.99,,2013-09-11 20:00:00,
2013-09-11 13:42:00,75.0,57.0,-100.00,WNW,301,4.0,-999.0,53,0.00,,,-99.99,,2013-09-11 20:42:00,
2013-09-11 13:52:00,75.0,57.0,-100.00,WNW,301,4.0,-999.0,53,0.00,,,-99.99,,2013-09-11 20:52:00,
2013-09-11 14:00:00,74.0,57.0,-100.00,SW,223,2.0,-999.0,54,0.00,,,-99.99,,2013-09-11 21:00:00,
2013-09-11 14:44:00,74.0,57.0,-100.00,SW,223,2.0,-999.0,54,0.00,,,-99.99,,2013-09-11 21:44:00,
2013-09-11 14:54:00,74.0,57.0,-100.00,SW,223,2.0,-999.0,54,0.00,,,-99.99,,2013-09-11 21:54:00,
2013-09-11 15:00:00,73.0,56.0,-100.00,WSW,254,4.0,-999.0,55,0.00,,,-99.99,,2013-09-11 22:00:00,
2013-09-11 15:43:00,73.0,56.0,-100.00,WSW,254,4.0,-999.0,55,0.00,,,-99.99,,2013-09-11 22:43:00,
2013-09-11 15:54:00,73.0,56.0,-100.00,WSW,254,4.0,-999.0,55,0.00,,,-99.99,,2013-09-11 22:54:00,
2013-09-11 16:00:00,74.0,57.0,-100.00,WSW,257,5.0,-999.0,54,0.00,,,-99.99,,2013-09-11 23:00:00,
2013-09-11 16:42:00,74.0,57.0,-100.00,WSW,257,5.0,-999.0,54,0.00,,,-99.99,,2013-09-11 23:42:00,
2013-09-11 16:53:00,74.0,57.0,-100.00,WSW,257,5.0,-999.0,54,0.00,,,-99.99,,2013-09-11 23:53:00,
2013-09-11 17:00:00,74.0,58.0,-100.00,WSW,244,5.0,-999.0,56,0.00,,,-99.99,,2013-09-12 00:00:00,
2013-09-11 17:42:00,74.0,58.0,-100.00,WSW,244,5.0,-999.0,56,0.00,,,-99.99,,2013-09-12 00:42:00,
2013-09-11 17:52:00,74.0,58.0,-100.00,WSW,244,5.0,-999.0,56,0.00,,,-99.99,,2013-09-12 00:52:00,
2013-09-11 18:00:00,72.0,57.0,-100.00,SW,230,5.0,-999.0,59,0.00,,,-99.99,,2013-09-12 01:00:00,
2013-09-11 18:42:00,72.0,57.0,-100.00,SW,230,5.0,-999.0,59,0.00,,,-99.99,,2013-09-12 01:42:00,
2013-09-11 18:52:00,72.0,57.0,-100.00,SW,230,5.0,-999.0,59,0.00,,,-99.99,,2013-09-12 01:52:00,
2013-09-11 19:00:00,68.0,57.0,-100.00,WSW,248,1.0,-999.0,66,0.00,,,-99.99,,2013-09-12 02:00:00,
2013-09-11 19:52:00,68.0,57.0,-100.00,WSW,248,1.0,-999.0,66,0.00,,,-99.99,,2013-09-12 02:52:00,
2013-09-11 20:00:00,64.0,56.0,-100.00,WNW,302,1.0,-999.0,75,0.00,,,-99.99,,2013-09-12 03:00:00,
2013-09-11 20:45:00,64.0,56.0,-100.00,WNW,302,1.0,-999.0,75,0.00,,,-99.99,,2013-09-12 03:45:00,
2013-09-11 20:55:00,64.0,56.0,-100.00,WNW,302,1.0,-999.0,75,0.00,,,-99.99,,2013-09-12 03:55:00,
2013-09-11 21:00:00,62.0,56.0,-100.00,SW,223,1.0,-999.0,81,0.00,,,-99.99,,2013-09-12 04:00:00,
2013-09-11 21:44:00,62.0,56.0,-100.00,SW,223,1.0,-999.0,81,0.00,,,-99.99,,2013-09-12 04:44:00,
2013-09-11 21:54:00,62.0,56.0,-100.00,SW,223,1.0,-999.0,81,0.00,,,-99.99,,2013-09-12 04:54:00,
2013-09-11 22:00:00,59.0,54.0,-100.00,ENE,67,1.0,-999.0,83,0.00,,,-99.99,,2013-09-12 05:00:00,
2013-09-11 22:43:00,59.0,54.0,-100.00,ENE,67,1.0,-999.0,83,0.00,,,-99.99,,2013-09-12 05:43:00,
2013-09-11 22:53:00,59.0,54.0,-100.00,ENE,67,1.0,-999.0,83,0.00,,,-99.99,,2013-09-12 05:53:00,
2013-09-11 23:00:00,58.0,54.0,-100.00,ENE,61,2.0,-999.0,85,0.00,,,-99.99,,2013-09-12 06:00:00,
2013-09-11 23:42:00,58.0,54.0,-100.00,ENE,61,2.0,-999.0,85,0.00,,,-99.99,,2013-09-12 06:42:00,
2013-09-11 23:52:00,58.0,54.0,-100.00,ENE,61,2.0,-999.0,85,0.00,,,-99.99,,2013-09-12 06:52:00,